Temp
24 26 26 29 33 35 34 32 34 32 32 32 32 31 31 30 31 30 26 26 25 25 24 22 21 21 21 21 22 21 21 21 21 22 21 21 21 21 21 21 21 21 21 21 21 21 21 21 21
27 26 28 32 34 34 33 34 33 33 32 32 30 31 30 29 29 28 27 25 25 25 24 23 22 21 21 21 21 21 21 21 21 21 21 21 21 21 21 21 21 21 21 21 21 21 21 21 21
25 26 31 34 35 34 33 33 32 32 31 32 31 31 30 29 28 29 27 25 25 26 25 23 21 21 22 21 21 21 21 21 21 21 22 21 21 21 21 21 21 21 21 21 21 21 21 21 22
28 31 33 35 34 34 34 33 33 32 32 32 32 30 30 28 29 28 26 26 26 26 25 22 22 21 21 21 21 21 21 21 21 21 21 21 21 21 21 21 21 22 21 21 21 21 21 21 22
29 32 34 34 34 34 34 34 33 33 32 31 32 30 28 28 27 27 26 26 26 26 25 23 22 21 21 21 21 21 22 21 21 21 21 21 21 21 21 21 22 21 21 21 21 21 21 21 22
32 33 34 34 33 33 34 34 33 33 32 32 31 31 29 27 27 26 26 26 27 26 26 23 21 22 22 22 21 21 21 21 21 22 21 21 21 21 21 21 21 21 21 21 22 22 22 23 23
33 35 34 35 34 33 33 34 34 33 32 32 33 31 29 28 27 27 26 26 27 26 26 25 24 23 22 22 21 21 21 21 21 21 21 21 21 21 21 21 21 21 21 22 22 22 23 23 23
31 35 34 35 34 33 33 33 33 34 33 33 33 31 29 29 27 26 26 26 26 26 26 26 24 24 24 23 21 22 21 21 21 21 21 21 21 22 22 22 22 22 22 22 22 22 23 23 23
31 35 34 34 34 34 34 33 33 34 32 32 32 33 32 27 27 27 26 26 26 26 26 26 25 25 24 24 22 22 21 21 21 22 21 22 24 23 23 23 23 23 23 23 23 23 23 24 24
34 36 35 35 35 35 34 34 33 33 32 32 31 32 29 28 27 28 28 28 27 26 26 26 26 25 25 25 24 24 24 24 24 23 23 24 25 26 25 24 24 24 24 24 24 24 24 25 27
34 35 35 35 35 35 34 34 35 34 33 33 32 30 30 29 29 29 29 29 28 27 27 26 26 26 26 26 25 25 25 25 24 23 23 24 25 24 25 26 25 25 24 25 25 25 26 26 26
35 35 35 34 35 35 34 35 34 34 34 35 33 31 30 30 30 30 29 29 28 27 27 26 26 25 25 25 25 26 26 25 25 24 22 24 24 24 25 25 25 24 25 25 25 26 25 26 26
35 35 35 35 35 36 35 34 34 34 34 34 33 31 31 32 30 30 30 29 28 27 27 27 25 24 25 24 25 25 25 25 25 24 23 24 25 25 25 25 25 25 26 26 25 26 26 26 27
35 36 36 35 35 35 35 34 34 34 34 33 32 32 32 32 31 30 30 29 28 28 27 26 25 23 23 23 23 24 25 25 25 25 25 23 24 25 25 25 25 25 25 26 26 26 26 27 27
35 36 36 35 35 35 36 34 34 35 34 33 32 32 32 32 31 31 30 29 29 28 27 27 25 24 23 23 22 23 25 25 25 25 24 23 24 24 24 25 25 26 25 24 25 25 26 26 28
36 36 35 35 35 34 35 35 36 35 33 33 33 33 32 32 32 31 30 29 29 28 27 26 26 26 24 23 23 24 25 25 25 25 25 23 23 23 23 25 26 26 25 25 25 26 26 27 28
33 34 34 34 35 35 35 35 36 35 33 34 33 33 33 33 32 31 30 30 29 28 27 26 25 26 25 24 24 24 24 25 26 26 26 25 24 24 24 25 26 24 25 25 25 26 25 27 27
34 34 35 35 36 35 35 35 37 35 35 35 34 34 33 33 33 32 31 30 30 28 27 26 25 26 25 25 24 25 26 26 26 26 26 26 26 24 24 25 25 24 25 26 25 24 25 26 26
35 33 34 36 36 34 35 36 37 37 35 36 35 34 34 34 34 33 31 31 30 29 28 27 26 25 24 25 25 26 26 27 27 26 26 25 25 25 24 25 26 25 24 23 21 21 21 23 25
35 35 36 36 35 35 35 35 36 37 36 36 36 35 35 35 35 34 32 31 30 30 28 27 26 25 24 25 26 27 27 28 28 27 26 25 25 25 24 25 26 25 23 20 21 21 21 21 22
35 34 35 35 35 35 33 36 36 36 36 36 36 36 36 36 35 35 33 32 31 30 29 27 26 26 25 26 25 25 26 26 26 26 26 26 24 24 24 24 23 22 22 22 20 20 20 19 20
36 34 35 35 35 36 33 35 37 36 35 34 35 35 36 36 35 35 34 33 31 31 30 28 26 26 25 25 26 26 27 28 28 28 27 23 21 22 21 21 22 21 21 21 21 20 19 18 19
34 34 34 35 36 35 36 36 37 36 37 36 35 35 35 36 36 35 35 33 32 31 31 28 25 25 26 25 25 26 25 27 27 25 21 20 20 21 22 21 20 22 21 20 21 20 19 19 20
34 34 36 35 36 36 35 35 37 37 36 36 36 35 34 35 35 35 34 34 33 30 30 29 27 25 25 25 24 25 26 26 24 23 20 21 21 20 19 20 20 20 21 20 19 19 19 19 19
34 36 36 35 36 36 35 35 37 37 36 34 33 33 34 34 34 34 34 33 31 28 26 26 25 23 24 24 24 23 23 23 23 20 19 20 20 19 18 19 19 19 19 19 18 18 19 19 20
36 36 35 33 35 36 35 35 37 37 35 33 32 32 31 31 33 33 34 32 30 27 27 26 25 23 22 23 22 22 21 20 18 19 19 19 18 17 18 18 18 18 18 18 18 17 19 19 20
35 35 37 36 37 35 37 37 38 37 37 35 33 32 32 31 31 31 30 29 28 26 26 26 24 22 21 21 20 19 19 19 20 20 19 18 18 18 18 18 18 18 16 17 17 19 18 18 18
35 35 35 36 33 33 36 35 36 36 36 36 35 34 33 30 29 29 29 27 27 26 25 25 23 22 22 19 18 19 19 19 20 20 20 18 17 17 17 17 18 17 17 17 17 17 17 18 19
35 35 35 36 35 34 34 35 37 36 35 35 35 34 33 30 28 28 27 25 23 22 23 24 23 23 21 19 20 21 20 20 19 19 17 16 17 17 17 16 17 17 16 16 16 17 17 17 18
36 36 36 36 34 36 34 34 37 36 36 35 36 32 31 29 25 24 23 23 22 19 20 21 21 20 19 19 19 18 17 17 17 18 17 16 16 17 17 16 16 15 15 16 16 17 18 18 17
Height
774 775 773 769 776 760 781 790 771 786 787 780 781 786 789 791 792 806 807 811 815 819 824 826 828 829 831 832 833 835 837 838 840 841 842 843 844 844 845 845 846 847 848 848 849 849 850 850 852
775 774 772 763 774 782 791 774 783 780 780 781 787 787 792 800 796 801 807 813 817 820 824 827 828 830 832 833 835 837 838 839 841 842 843 844 845 846 846 848 848 850 851 851 852 852 852 852 853
775 775 769 763 767 783 791 780 781 780 781 783 789 787 791 800 801 803 807 814 818 821 824 827 829 831 833 835 837 839 840 841 842 844 845 845 846 847 848 850 851 851 852 853 853 854 854 854 854
774 770 762 769 784 778 778 777 777 782 782 781 783 795 795 799 802 805 811 815 819 822 825 828 830 832 835 837 839 841 841 842 843 844 846 847 848 849 850 851 852 853 853 854 854 855 855 855 856
774 767 773 778 782 776 771 773 775 780 782 785 783 797 801 804 807 810 814 817 820 823 826 830 831 834 836 838 840 842 842 844 845 846 847 849 850 851 852 853 853 854 855 855 855 856 856 856 856
771 766 778 786 787 779 773 772 774 777 781 784 789 793 799 805 808 812 815 818 820 823 827 831 833 835 837 839 840 842 844 845 845 847 848 850 851 852 853 854 855 855 856 856 857 857 857 856 856
771 765 780 777 785 784 780 771 775 777 782 785 782 795 801 805 808 812 816 819 821 825 828 831 835 837 837 839 841 842 844 845 847 848 850 851 852 853 854 855 855 856 857 858 858 858 857 857 856
770 763 779 775 783 787 775 774 774 774 783 780 780 795 802 802 809 813 817 821 823 825 827 830 834 836 839 841 842 842 844 846 847 849 850 852 853 854 855 856 856 857 858 858 858 858 857 856 856
768 770 782 782 778 780 772 779 774 774 782 782 783 781 788 802 808 812 816 820 823 826 827 830 833 836 838 840 842 843 844 846 847 849 850 852 854 855 855 857 857 857 858 858 858 858 857 856 855
767 768 777 767 768 771 772 772 776 781 784 787 788 787 795 802 805 807 811 815 820 824 827 830 832 835 837 839 842 844 846 847 849 851 852 853 853 854 856 856 857 857 857 858 858 857 857 856 855
767 774 769 768 763 763 772 774 770 777 785 779 788 792 798 802 804 805 809 812 817 822 825 829 831 834 836 838 841 843 845 847 849 851 852 853 854 855 856 857 857 859 858 859 858 858 857 856 855
772 767 765 769 764 767 774 769 775 773 776 772 780 791 796 800 802 804 806 811 815 819 823 827 831 835 837 839 841 841 843 846 848 850 852 853 854 855 856 857 858 858 858 859 859 858 857 857 856
769 766 764 764 765 765 768 775 775 776 773 774 782 790 794 796 800 803 806 810 814 819 823 825 829 832 836 840 841 843 844 847 848 850 852 854 855 856 857 858 859 859 859 859 858 858 857 857 855
765 763 764 765 767 766 773 775 774 774 774 778 784 788 791 794 797 801 805 808 812 816 820 824 829 833 835 839 842 844 845 847 849 850 851 852 854 855 856 857 857 857 858 858 857 857 857 856 855
764 771 765 767 767 769 766 782 779 767 773 780 784 786 787 791 795 799 803 805 810 814 818 822 827 831 835 837 840 842 844 846 848 849 851 852 854 855 855 856 856 856 857 856 857 857 856 855 853
770 770 783 772 768 770 771 785 765 765 775 778 780 783 786 789 792 797 801 805 808 811 816 821 823 827 832 836 839 840 842 843 845 848 849 850 852 853 855 855 855 855 856 855 856 856 855 854 852
783 790 788 784 767 769 773 779 761 762 772 773 776 779 782 784 789 794 798 801 805 810 814 819 823 825 828 831 836 839 840 842 843 844 846 847 849 851 852 854 854 855 855 856 856 856 855 854 854
791 789 783 784 771 771 773 773 757 761 765 768 770 774 778 780 782 788 794 798 802 807 812 816 820 824 828 830 833 836 838 840 842 843 844 846 847 849 850 851 852 853 854 854 855 855 856 855 853
780 791 787 771 765 777 773 767 758 753 761 762 764 768 773 774 776 782 789 794 799 804 809 813 817 821 825 828 830 833 834 836 838 840 843 845 847 848 848 849 849 850 852 853 853 853 855 853 854
777 782 777 768 767 774 768 768 754 749 755 755 757 760 765 768 770 775 782 789 794 798 805 810 813 818 821 824 827 828 831 833 835 837 840 841 844 845 846 847 847 848 850 850 850 850 849 850 854
780 787 784 785 770 766 777 762 759 750 748 751 751 751 755 758 764 768 775 781 787 793 798 803 808 813 818 821 825 829 831 832 834 835 837 839 841 842 843 844 845 846 848 849 849 852 849 853 853
783 780 778 777 778 785 776 789 759 755 756 756 754 751 750 752 757 761 767 775 781 785 792 798 803 806 811 816 820 823 825 827 827 831 831 839 838 839 840 840 842 843 846 845 845 850 853 852 852
787 776 780 778 776 775 773 780 757 753 754 752 750 748 746 746 749 754 759 768 775 780 786 793 799 801 805 810 814 819 823 824 827 830 833 835 835 836 836 838 839 840 844 843 843 846 844 846 850
774 778 772 774 773 784 784 788 764 760 762 752 745 746 745 744 747 750 756 762 768 777 781 785 791 796 801 805 809 814 818 822 825 832 834 836 837 837 836 836 839 838 836 841 841 843 846 847 847
779 779 790 799 789 792 776 785 765 752 750 754 755 750 747 746 748 751 755 759 767 775 779 781 788 791 796 802 807 811 815 820 824 829 831 833 834 834 833 834 835 834 837 839 840 842 842 844 844
777 779 797 823 804 793 775 790 763 746 747 752 753 751 752 751 748 749 750 758 766 773 776 779 785 788 790 796 806 811 809 813 821 825 829 832 831 831 831 831 832 835 837 837 839 844 843 843 841
780 789 765 787 770 790 769 762 745 743 742 747 751 752 751 753 752 753 759 765 766 769 772 777 784 788 789 791 796 807 810 816 821 826 829 827 826 824 828 828 825 831 834 833 841 843 841 841 841
772 767 786 776 816 815 781 779 768 756 751 748 747 746 747 753 757 758 761 766 768 769 772 775 777 783 788 793 797 801 809 814 817 815 818 820 823 825 827 828 826 830 832 834 838 840 840 840 841
775 779 777 775 782 803 803 779 743 751 750 749 745 744 744 751 756 760 764 768 771 772 771 771 775 778 785 789 791 792 792 795 804 813 815 820 823 823 823 827 825 829 832 836 839 839 839 840 841
761 766 766 782 793 773 784 780 740 746 745 742 738 745 747 751 761 765 769 769 769 771 770 769 772 776 780 786 788 794 800 804 805 812 813 819 819 819 820 823 825 829 832 833 836 837 838 839 840
Wind_Speed
3 4 4 5 4 2 9 7 7 11 10 3 9 1 4 7 6 5 17 12 18 17 15 14 14 13 13 14 14 14 13 13 13 12 13 13 13 13 13 12 12 11 12 12 12 11 11 10 10
3 2 4 4 3 7 8 6 9 6 9 11 8 6 4 6 6 14 16 16 17 16 15 13 14 14 13 13 13 13 13 13 13 13 13 13 14 13 13 12 12 11 11 12 12 11 11 11 11
1 3 4 3 2 9 11 7 8 7 11 10 4 3 2 4 8 16 16 20 17 15 14 13 14 13 13 12 12 13 13 13 12 13 13 13 13 13 13 12 11 10 10 11 11 10 10 10 10
3 4 4 2 11 10 12 10 9 11 8 5 5 7 7 7 12 9 20 19 16 14 13 12 13 14 14 12 11 12 13 12 12 12 12 12 13 13 12 11 11 10 9 9 9 9 8 8 8
3 3 3 7 12 10 11 10 4 4 8 8 6 7 12 8 8 18 19 17 17 15 14 13 15 14 13 13 12 12 12 12 11 10 12 12 12 12 11 11 10 8 8 8 8 8 7 6 5
3 4 5 8 13 10 7 5 4 4 7 9 7 13 9 10 17 19 17 16 16 15 15 13 13 13 13 12 13 12 11 12 11 12 12 11 11 10 11 9 8 7 6 6 6 5 5 4 3
3 2 8 8 12 7 8 3 5 8 9 8 14 10 9 14 18 18 16 14 14 14 13 13 12 13 14 13 13 12 12 12 10 10 11 11 10 10 9 9 7 6 5 4 3 2 2 1 1
2 2 6 6 5 11 8 6 7 6 8 12 11 6 14 18 19 18 16 15 14 13 13 13 13 13 13 11 13 12 12 12 11 10 11 10 10 10 8 7 5 4 2 1 1 2 3 3 3
2 3 7 6 2 8 10 8 4 3 12 6 3 6 20 23 20 19 18 16 14 13 13 14 14 13 13 13 13 12 12 11 10 10 11 10 9 8 7 7 5 3 2 3 4 4 5 6 6
4 2 5 4 2 6 10 6 8 8 9 5 5 13 23 22 21 20 19 18 17 16 15 14 14 14 14 13 12 12 10 9 9 9 9 10 9 8 7 6 6 4 4 4 5 5 6 6 4
2 7 3 5 4 6 9 6 4 9 6 5 12 18 19 19 18 18 17 16 18 16 15 15 14 13 14 13 13 11 11 9 9 10 10 9 8 7 6 6 5 3 4 3 4 6 5 4 4
3 4 2 3 6 7 8 8 6 5 7 7 15 18 19 17 16 15 15 15 16 17 17 16 14 13 13 12 13 13 12 12 11 11 11 9 8 7 6 5 4 4 3 2 4 4 3 3 3
4 3 3 5 4 6 8 6 3 6 3 11 17 18 17 15 16 13 12 14 15 15 16 17 17 16 15 13 12 11 11 11 11 10 10 8 7 6 5 4 4 5 5 6 6 5 4 4 4
4 3 5 5 5 5 5 4 3 6 7 14 17 18 17 15 16 15 14 13 15 16 16 17 17 16 15 14 12 11 10 9 10 10 10 11 9 8 7 6 6 6 6 7 6 6 5 5 5
1 8 8 5 3 3 5 7 7 8 12 15 16 16 16 15 17 15 16 15 15 14 16 18 17 17 16 15 14 12 11 11 10 10 9 9 8 9 8 7 7 8 8 6 6 6 6 7 6
4 4 6 6 3 3 9 0 7 10 13 15 16 15 16 17 18 17 15 15 15 14 15 16 18 19 18 15 14 14 13 12 11 10 9 9 9 8 8 7 6 5 4 3 5 6 6 6 6
4 2 4 5 4 3 9 6 4 11 14 14 16 16 16 17 18 19 18 17 16 16 16 17 17 19 20 19 17 16 14 13 13 13 12 10 9 8 7 7 5 5 4 4 5 4 4 5 6
1 5 3 7 6 9 10 13 12 11 15 15 16 16 16 17 20 23 21 20 18 17 17 18 18 17 18 18 18 16 14 13 12 12 12 10 9 9 9 7 6 5 5 5 5 6 6 9 8
3 2 6 4 2 8 14 13 12 11 15 15 16 17 17 18 20 23 23 22 20 20 20 19 20 19 20 20 20 18 17 15 14 14 12 10 9 8 9 8 7 6 5 1 2 4 8 12 13
5 6 6 1 2 7 11 15 12 10 14 16 16 17 18 18 17 21 23 23 24 23 22 22 22 22 22 21 20 19 17 16 14 13 11 10 9 9 9 10 10 8 5 1 2 4 11 18 20
4 8 8 10 8 7 10 6 3 6 11 13 15 15 18 18 18 19 23 25 25 25 26 28 26 25 24 23 19 16 12 12 12 12 11 9 8 9 9 8 6 6 2 3 8 20 17 22 25
3 5 9 11 10 8 4 4 2 2 2 10 14 17 18 19 18 17 21 24 26 28 27 27 28 29 28 26 22 21 18 17 16 14 7 4 2 3 1 3 3 3 8 14 10 14 20 31 28
5 4 7 10 10 7 6 6 8 4 5 1 8 14 18 19 19 20 19 22 23 23 24 24 26 30 29 28 28 22 20 16 13 6 5 4 1 3 5 2 6 5 14 17 15 18 17 16 16
2 8 9 6 5 3 7 6 2 11 10 6 7 5 10 15 18 17 22 21 20 15 18 21 23 26 27 26 26 24 18 16 6 5 4 2 3 4 5 3 3 4 8 20 24 18 15 14 14
6 10 4 3 2 5 5 8 6 12 9 9 11 9 6 9 13 13 14 15 13 18 17 18 20 22 29 28 19 18 14 11 10 10 8 6 3 2 1 1 1 2 3 10 13 13 11 9 8
4 9 7 7 8 10 2 4 6 8 7 8 8 8 5 5 8 10 9 7 14 15 13 18 20 20 26 25 15 15 21 21 19 16 11 4 4 3 3 3 2 2 8 9 10 9 10 8 6
6 7 8 11 13 8 4 5 10 6 7 10 10 5 4 2 2 3 4 5 4 12 15 18 17 17 23 23 29 25 22 20 18 11 11 18 20 15 9 7 4 7 9 7 8 8 8 7 7
10 6 7 6 7 11 12 13 8 11 17 15 14 11 4 3 4 4 5 5 4 6 9 16 18 20 20 23 26 28 23 20 15 17 19 19 16 14 10 10 7 10 9 10 11 9 7 7 5
6 10 7 8 7 11 13 9 15 12 12 17 15 12 5 6 4 2 1 0 1 3 6 12 19 21 23 26 31 28 34 35 33 21 12 20 17 14 13 13 13 13 12 11 9 8 8 6 4
9 11 9 9 11 10 9 14 7 6 14 17 17 10 4 2 3 1 2 3 2 1 4 10 14 20 26 25 30 23 26 24 20 16 18 19 16 14 15 13 13 12 11 9 7 6 6 5 5
Wind_Direction
299 289 287 249 217 163 87 90 107 117 137 85 116 236 60 13 347 44 139 137 145 149 152 152 150 146 143 139 142 141 141 145 152 146 143 146 138 135 131 128 126 122 122 119 115 113 116 118 116
265 311 253 274 225 103 78 83 102 109 110 124 119 133 127 80 68 123 133 144 146 148 147 151 152 145 142 143 144 140 141 145 145 147 147 140 139 132 132 127 123 120 120 122 121 114 116 115 121
170 264 270 273 3 64 94 91 90 118 140 159 121 6 64 74 128 133 129 146 147 147 147 153 147 145 140 143 146 138 144 145 141 141 140 136 133 132 130 127 123 123 127 128 127 123 121 114 113
277 209 226 67 87 65 96 111 115 127 157 166 108 102 94 104 124 138 142 145 145 145 145 147 144 144 143 147 144 141 142 141 137 138 144 142 140 138 127 129 132 135 137 135 133 130 129 120 115
255 255 150 95 91 96 105 112 137 140 153 164 177 122 116 126 122 138 144 148 149 149 147 153 151 149 147 143 143 144 146 138 143 148 139 141 136 137 135 135 140 148 142 144 145 143 138 130 125
224 260 132 112 102 107 117 121 129 138 138 139 147 130 111 124 144 148 150 154 152 152 150 152 152 154 148 152 149 144 141 142 147 146 148 144 142 140 138 147 150 147 148 151 153 152 146 141 137
272 194 97 119 115 135 130 143 122 137 145 149 144 135 121 149 147 152 152 156 155 153 152 153 158 163 160 156 150 152 153 152 152 150 147 146 149 149 153 153 152 153 154 154 158 158 164 216 292
263 223 143 111 138 111 135 136 116 133 96 121 153 150 160 146 154 152 154 158 160 161 158 159 156 163 162 159 159 159 159 155 158 162 157 160 164 166 167 160 156 157 165 187 237 271 279 281 285
267 208 105 107 204 122 152 140 129 104 137 163 144 167 137 148 156 158 159 162 167 171 168 171 168 168 166 167 173 167 168 172 175 174 171 165 167 173 181 188 199 190 239 265 281 287 285 285 306
263 82 81 75 89 130 162 143 135 148 154 149 141 117 140 153 161 166 171 171 176 176 177 179 177 174 173 173 175 176 179 178 180 179 182 177 180 179 174 186 206 215 251 280 291 296 291 312 284
42 70 66 73 63 126 141 134 135 145 186 151 158 151 156 161 170 169 178 180 179 180 179 183 182 180 180 178 179 180 183 185 189 188 187 190 193 193 192 192 209 212 278 297 301 312 301 294 293
151 72 56 91 111 136 147 138 157 148 43 132 151 161 163 171 176 177 179 180 184 182 184 184 185 185 194 186 189 187 189 192 191 193 193 199 198 208 206 209 219 226 227 297 283 304 298 295 298
11 60 137 116 119 113 139 169 98 191 68 139 148 165 175 179 177 180 180 180 182 185 190 188 185 185 188 195 196 202 202 196 192 192 197 197 205 219 232 242 247 256 261 289 298 276 282 280 290
23 154 118 147 164 139 176 164 209 137 157 149 162 172 181 185 184 176 182 179 184 184 188 191 192 191 189 192 195 203 206 196 193 192 198 203 201 214 224 237 248 256 265 294 292 282 284 289 295
313 144 129 86 156 164 219 210 233 151 170 168 176 182 182 186 188 192 187 186 185 186 187 189 193 196 195 193 195 196 194 191 197 201 208 210 221 228 224 240 253 263 276 290 304 304 292 291 290
233 224 198 103 212 151 225 220 171 162 185 185 185 188 190 189 193 193 191 194 188 190 190 193 190 192 194 199 198 193 192 195 202 207 209 218 232 243 243 242 258 265 264 262 302 309 309 303 307
240 236 207 179 227 208 230 272 149 173 195 198 191 192 197 193 197 197 201 199 195 194 189 194 196 194 191 192 194 198 204 206 204 205 212 220 222 230 228 255 273 277 252 264 307 313 308 303 299
310 197 223 264 192 234 246 261 276 184 204 207 198 196 200 202 197 197 201 203 200 197 196 194 197 200 196 194 192 200 209 216 217 219 224 220 222 225 231 247 254 260 272 273 311 332 324 306 312
302 313 284 287 261 282 270 281 287 188 222 212 206 198 205 209 203 197 200 203 206 202 201 200 198 198 195 196 198 204 209 212 219 223 227 234 236 234 239 244 251 262 268 246 52 21 338 327 330
274 247 339 12 323 285 300 295 284 246 217 227 216 213 209 208 206 200 198 204 208 207 205 206 203 200 199 201 204 210 215 223 228 227 230 229 231 238 245 257 265 265 249 219 45 338 332 310 307
82 335 351 329 306 233 302 241 106 216 235 227 235 227 218 215 210 202 202 204 208 210 207 208 205 202 204 207 206 209 219 227 222 225 232 235 240 247 252 258 260 249 190 297 342 327 310 289 273
68 353 318 319 313 350 7 309 162 71 241 228 232 229 228 222 219 216 207 209 210 213 211 212 206 202 206 204 208 211 220 228 230 237 220 211 130 167 170 185 196 136 313 329 312 302 300 274 264
28 297 321 311 296 289 104 262 80 152 35 233 225 235 236 231 224 218 218 214 215 219 217 215 216 212 206 206 210 213 224 235 243 215 178 202 103 54 57 166 175 251 296 304 294 288 295 254 255
326 278 255 268 281 211 44 332 276 28 356 353 318 308 265 237 234 234 226 220 215 215 214 212 213 215 208 207 210 213 215 223 198 192 162 173 132 116 79 63 323 334 335 305 286 271 242 246 249
250 262 294 301 232 27 62 298 323 21 10 346 324 317 300 249 236 236 241 237 216 215 212 200 214 210 208 211 212 206 193 204 187 155 141 147 171 156 39 224 142 55 311 255 245 255 249 236 239
292 312 304 308 325 332 132 280 8 34 33 8 338 331 316 279 240 239 225 217 208 224 208 208 212 206 189 199 196 192 170 152 139 143 133 128 152 157 119 116 23 293 227 226 239 232 231 224 199
115 248 4 291 276 265 317 332 297 152 72 28 350 327 303 283 223 190 201 194 217 193 210 208 216 203 186 184 163 151 138 137 127 95 327 274 242 211 210 227 263 273 218 190 211 209 179 160 131
260 354 254 216 285 296 307 306 296 347 332 346 343 336 277 213 221 192 200 200 195 191 210 212 200 205 191 163 151 147 146 146 168 253 255 244 211 202 223 231 199 201 192 183 173 175 168 157 156
181 234 226 300 280 302 299 308 343 330 332 331 327 335 290 224 229 205 258 352 275 232 225 203 196 195 178 164 166 182 196 207 215 224 219 203 197 201 199 195 175 174 175 179 177 179 172 167 178
277 286 276 284 292 287 294 285 65 315 323 310 315 345 308 232 181 136 21 9 46 64 164 180 170 172 172 183 182 179 186 189 185 193 192 189 191 191 188 185 177 178 182 183 191 191 190 186 180